When you browse on this site, cookies collect data to enhance your experience and personalize the content and advertising you see.
Visit our Privacy Policy to learn more. By continuing to use the site, you agree to this use of cookies and data.
  • In United Kingdom
  • List of Countries
  • For 7 days
  • Water Temperature
  • Satellite Maps
  • Weather Map
  • Weather Widgets
  • user-avatar
    Login

    Hourly Weather Khampho

    Today, 21 January, Monday

    Time Temperature Precipitation Wind Pressure Humidity
    00:00 +21°C° 0 mm 3 mps 740 mmHg 85%
    01:00 +20°C° 0 mm 2 mps 740 mmHg 89%
    02:00 +20°C° 0 mm 2 mps 740 mmHg 89%
    03:00 +20°C° 0 mm 2 mps 740 mmHg 89%
    04:00 +20°C° 0 mm 2 mps 740 mmHg 89%
    05:00 +20°C° 0 mm 2 mps 740 mmHg 88%
    06:00 +20°C° 0 mm 2 mps 741 mmHg 87%
    07:00 +20°C° 0 mm 2 mps 741 mmHg 85%
    08:00 +24°C° 0 mm 3 mps 741 mmHg 74%
    09:00 +26°C° 0 mm 4 mps 742 mmHg 62%
    10:00 +29°C° 0 mm 4 mps 742 mmHg 51%
    11:00 +30°C° 0 mm 4 mps 742 mmHg 48%
    12:00 +30°C° 0 mm 5 mps 741 mmHg 46%
    13:00 +33°C° 0 mm 4 mps 741 mmHg 39%
    14:00 +32°C° 0 mm 5 mps 741 mmHg 43%
    15:00 +30°C° 0 mm 5 mps 740 mmHg 47%
    16:00 +29°C° 0 mm 5 mps 740 mmHg 51%
    17:00 +27°C° 0 mm 5 mps 740 mmHg 58%
    18:00 +25°C° 0 mm 4 mps 741 mmHg 64%
    19:00 +23°C° 0 mm 2 mps 740 mmHg 69%
    20:00 +22°C° 0 mm 3 mps 741 mmHg 70%
    21:00 +21°C° 0 mm 3 mps 741 mmHg 72%
    22:00 +21°C° 0 mm 4 mps 742 mmHg 73%
    23:00 +21°C° 0 mm 4 mps 742 mmHg 72%

    Tomorrow, 22 January, Tuesday

    Time Temperature Precipitation Wind Pressure Humidity
    00:00 +21°C° 0 mm 4 mps 742 mmHg 72%
    01:00 +20°C° 0 mm 4 mps 742 mmHg 71%
    02:00 +20°C° 0 mm 4 mps 742 mmHg 72%
    03:00 +20°C° 0 mm 3 mps 742 mmHg 73%
    04:00 +19°C° 0 mm 3 mps 741 mmHg 75%
    05:00 +19°C° 0 mm 3 mps 742 mmHg 75%
    06:00 +19°C° 0 mm 3 mps 742 mmHg 76%
    07:00 +19°C° 0 mm 3 mps 742 mmHg 76%
    08:00 +21°C° 0 mm 3 mps 743 mmHg 68%
    09:00 +23°C° 0 mm 4 mps 743 mmHg 59%
    10:00 +26°C° 0 mm 4 mps 744 mmHg 51%
    11:00 +27°C° 0 mm 5 mps 743 mmHg 49%
    12:00 +28°C° 0 mm 5 mps 743 mmHg 46%
    13:00 +28°C° 0 mm 5 mps 742 mmHg 44%
    14:00 +27°C° 0 mm 5 mps 742 mmHg 46%
    15:00 +27°C° 0 mm 5 mps 741 mmHg 49%
    16:00 +26°C° 0 mm 5 mps 741 mmHg 51%
    17:00 +23°C° 0 mm 4 mps 741 mmHg 58%
    18:00 +21°C° 0 mm 4 mps 741 mmHg 64%
    19:00 +19°C° 0 mm 3 mps 741 mmHg 70%
    20:00 +19°C° 0 mm 3 mps 741 mmHg 73%
    21:00 +18°C° 0 mm 3 mps 742 mmHg 76%
    22:00 +18°C° 0 mm 3 mps 742 mmHg 79%
    23:00 +17°C° 0 mm 3 mps 742 mmHg 81%

    Day after tomorrow, 23 January, Wednesday

    Time Temperature Precipitation Wind Pressure Humidity
    00:00 +17°C° 0 mm 3 mps 742 mmHg 83%
    01:00 +17°C° 0 mm 3 mps 742 mmHg 85%
    02:00 +16°C° 0 mm 3 mps 741 mmHg 86%
    03:00 +16°C° 0 mm 3 mps 741 mmHg 88%
    04:00 +16°C° 0 mm 2 mps 741 mmHg 89%
    05:00 +16°C° 0 mm 2 mps 741 mmHg 90%
    06:00 +16°C° 0 mm 2 mps 741 mmHg 90%
    07:00 +16°C° 0 mm 2 mps 741 mmHg 91%
    08:00 +19°C° 0 mm 3 mps 742 mmHg 78%
    09:00 +22°C° 0 mm 3 mps 742 mmHg 66%
    10:00 +26°C° 0 mm 4 mps 743 mmHg 53%
    11:00 +27°C° 0 mm 4 mps 742 mmHg 49%
    12:00 +29°C° 0 mm 4 mps 741 mmHg 44%
    13:00 +30°C° 0 mm 4 mps 740 mmHg 39%
    14:00 +30°C° 0 mm 4 mps 740 mmHg 41%
    15:00 +29°C° 0 mm 4 mps 739 mmHg 43%
    16:00 +28°C° 0 mm 4 mps 739 mmHg 45%
    17:00 +26°C° 0 mm 4 mps 739 mmHg 54%
    18:00 +23°C° 0 mm 4 mps 739 mmHg 63%
    19:00 +21°C° 0 mm 3 mps 740 mmHg 71%
    20:00 +20°C° 0 mm 3 mps 740 mmHg 75%
    21:00 +19°C° 0 mm 3 mps 740 mmHg 79%
    22:00 +19°C° 0 mm 3 mps 741 mmHg 83%
    23:00 +18°C° 0 mm 3 mps 741 mmHg 86%

    24 January, Thursday

    Time Temperature Precipitation Wind Pressure Humidity
    00:00 +18°C° 0 mm 3 mps 740 mmHg 88%
    01:00 +17°C° 0 mm 2 mps 740 mmHg 91%
    02:00 +17°C° 0 mm 2 mps 740 mmHg 92%
    03:00 +17°C° 0 mm 2 mps 739 mmHg 94%
    04:00 +16°C° 0 mm 2 mps 739 mmHg 95%
    05:00 +16°C° 0 mm 2 mps 740 mmHg 95%
    06:00 +16°C° 0 mm 2 mps 740 mmHg 95%
    07:00 +17°C° 0 mm 2 mps 740 mmHg 94%
    08:00 +20°C° 0 mm 2 mps 741 mmHg 81%
    09:00 +24°C° 0 mm 3 mps 742 mmHg 68%
    10:00 +27°C° 0 mm 3 mps 742 mmHg 54%
    11:00 +28°C° 0 mm 3 mps 742 mmHg 49%
    12:00 +30°C° 0 mm 3 mps 741 mmHg 44%
    13:00 +31°C° 0 mm 3 mps 740 mmHg 39%
    14:00 +31°C° 0 mm 3 mps 739 mmHg 39%
    15:00 +30°C° 0 mm 3 mps 739 mmHg 40%
    16:00 +30°C° 0 mm 3 mps 738 mmHg 41%
    17:00 +28°C° 0 mm 3 mps 738 mmHg 50%
    18:00 +25°C° 0 mm 3 mps 739 mmHg 60%
    19:00 +22°C° 0 mm 3 mps 739 mmHg 69%
    20:00 +21°C° 0 mm 3 mps 740 mmHg 75%
    21:00 +20°C° 0 mm 3 mps 740 mmHg 81%
    22:00 +18°C° 0 mm 3 mps 740 mmHg 87%
    23:00 +18°C° 0 mm 2 mps 740 mmHg 89%

    25 January, Friday

    Time Temperature Precipitation Wind Pressure Humidity
    00:00 +17°C° 0 mm 2 mps 740 mmHg 91%
    01:00 +17°C° 0 mm 2 mps 740 mmHg 93%
    02:00 +16°C° 0 mm 2 mps 740 mmHg 95%
    03:00 +16°C° 0 mm 2 mps 740 mmHg 96%
    04:00 +16°C° 0 mm 2 mps 739 mmHg 97%
    05:00 +16°C° 0 mm 2 mps 740 mmHg 97%
    06:00 +16°C° 0 mm 2 mps 740 mmHg 97%
    07:00 +15°C° 0 mm 2 mps 741 mmHg 97%
    08:00 +19°C° 0 mm 2 mps 741 mmHg 81%
    09:00 +22°C° 0 mm 3 mps 742 mmHg 65%
    10:00 +27°C° 0 mm 3 mps 742 mmHg 48%
    11:00 +28°C° 0 mm 3 mps 742 mmHg 43%
    12:00 +30°C° 0 mm 3 mps 741 mmHg 38%
    13:00 +33°C° 0 mm 4 mps 740 mmHg 33%
    14:00 +32°C° 0 mm 4 mps 740 mmHg 35%
    15:00 +32°C° 0 mm 4 mps 739 mmHg 37%
    16:00 +30°C° 0 mm 4 mps 739 mmHg 39%
    17:00 +28°C° 0 mm 4 mps 740 mmHg 48%
    18:00 +25°C° 0 mm 4 mps 740 mmHg 57%
    19:00 +22°C° 0 mm 4 mps 741 mmHg 66%
    20:00 +21°C° 0 mm 4 mps 741 mmHg 70%
    21:00 +21°C° 0 mm 4 mps 742 mmHg 73%
    22:00 +20°C° 0 mm 4 mps 742 mmHg 77%
    23:00 +20°C° 0 mm 4 mps 742 mmHg 78%

    26 January, Saturday

    Time Temperature Precipitation Wind Pressure Humidity
    00:00 +20°C° 0 mm 3 mps 742 mmHg 79%
    01:00 +19°C° 0 mm 3 mps 742 mmHg 80%
    02:00 +19°C° 0 mm 3 mps 742 mmHg 80%
    03:00 +19°C° 0 mm 3 mps 741 mmHg 81%
    04:00 +19°C° 0 mm 3 mps 741 mmHg 81%
    05:00 +19°C° 0 mm 3 mps 741 mmHg 80%
    06:00 +19°C° 0 mm 3 mps 742 mmHg 80%
    07:00 +19°C° 0 mm 3 mps 742 mmHg 79%
    08:00 +21°C° 0 mm 4 mps 743 mmHg 71%
    09:00 +23°C° 0 mm 5 mps 743 mmHg 63%
    10:00 +26°C° 0 mm 5 mps 744 mmHg 55%
    11:00 +27°C° 0 mm 5 mps 743 mmHg 51%
    12:00 +28°C° 0 mm 5 mps 742 mmHg 48%
    13:00 +29°C° 0 mm 5 mps 742 mmHg 44%
    14:00 +28°C° 0 mm 5 mps 741 mmHg 46%
    15:00 +28°C° 0 mm 6 mps 741 mmHg 48%
    16:00 +27°C° 0 mm 6 mps 740 mmHg 49%
    17:00 +26°C° 0 mm 5 mps 741 mmHg 55%
    18:00 +23°C° 0 mm 4 mps 741 mmHg 60%
    19:00 +21°C° 0 mm 4 mps 742 mmHg 65%
    20:00 +20°C° 0 mm 4 mps 742 mmHg 68%
    21:00 +20°C° 0 mm 4 mps 743 mmHg 71%
    22:00 +19°C° 0 mm 4 mps 743 mmHg 73%
    23:00 +19°C° 0 mm 4 mps 743 mmHg 74%
    Show more